Weather History for Corpus Christi NAS, TX

Change the Weather History Date:

Tuesday, December 11, 2012

  Actual Average Record
Temperature  
Mean Temperature 50 °F -  
Max Temperature 53 °F 66 °F 82 °F (2010)
Min Temperature 46 °F 50 °F 37 °F (2003)
Degree Days  
Heating Degree Days 16    
Moisture  
Dew Point 30 °F    
Average Humidity 45    
Maximum Humidity 61    
Minimum Humidity 34    
Precipitation  
Precipitation 0.00 in - - ()
Sea Level Pressure  
Sea Level Pressure 30.14 in    
Wind  
Wind Speed 16 mph (NNE)    
Max Wind Speed 22 mph    
Max Gust Speed 28 mph    
Visibility 10 miles    
Events      
Averages and records for this station are not official NWS values.
T = Trace of Precipitation, MM = Missing Value Source: NWS Daily Summary

Daily Weather History Graph

Daily Weather History Graph

Search for Another Location

Airport:

Trip Planner

Search our weather history database for the weather conditions in past years. The results will help you decide how hot, cold, wet, or windy it might be!

Date:

Astronomy

Dec. 11, 2012 Rise Set
Actual Time 7:10 AM CST 5:35 PM CST
Civil Twilight 6:44 AM CST 6:00 PM CST
Nautical Twilight 6:15 AM CST 6:30 PM CST
Astronomical Twilight 5:46 AM CST 6:58 PM CST
Moon 5:11 AM CST (12/11) 4:12 PM CST (12/11)
Length of Visible Light 11h 16m
Length of Day
10h 25m
Waning Crescent, 4% of the Moon is Illuminated
Dec 11
Waning Crescent
Dec 13
New
Dec 19
First Quarter
Dec 28
Full
Jan 4
Last Quarter

Hourly Weather History & Observations

Time (CST) Temp. Dew Point Humidity Pressure Visibility Wind Dir Wind Speed Gust Speed Precip Events Conditions
12:56 AM 48.9 °F 26.1 °F 41% 30.11 in 10.0 mi NNE 20.7 mph - N/A   Clear
1:56 AM 48.0 °F 26.1 °F 42% 30.09 in 10.0 mi NNE 19.6 mph - N/A   Clear
2:56 AM 48.0 °F 27.0 °F 44% 30.09 in 10.0 mi NNE 21.9 mph - N/A   Clear
3:56 AM 46.9 °F 33.1 °F 59% 30.10 in 10.0 mi NNE 17.3 mph - N/A   Clear
4:56 AM 46.9 °F 33.1 °F 59% 30.09 in 10.0 mi NNE 19.6 mph - N/A   Clear
5:56 AM 46.9 °F 34.0 °F 61% 30.09 in 10.0 mi NE 20.7 mph 27.6 mph N/A   Scattered Clouds
6:56 AM 46.9 °F 33.1 °F 59% 30.12 in 10.0 mi NE 19.6 mph - N/A   Scattered Clouds
7:56 AM 48.0 °F 32.0 °F 54% 30.15 in 10.0 mi NE 16.1 mph - N/A   Mostly Cloudy
8:56 AM 48.9 °F 34.0 °F 56% 30.16 in 10.0 mi NNE 15.0 mph - N/A   Mostly Cloudy
9:56 AM 50.0 °F 34.0 °F 54% 30.17 in 10.0 mi NE 15.0 mph - N/A   Mostly Cloudy
10:56 AM 51.1 °F 30.0 °F 44% 30.19 in 10.0 mi NNE 12.7 mph - N/A   Overcast
11:56 AM 52.0 °F 28.9 °F 41% 30.17 in 10.0 mi NNE 9.2 mph - N/A   Overcast
12:56 PM 52.0 °F 30.0 °F 43% 30.14 in 10.0 mi Variable 6.9 mph - N/A   Overcast
1:56 PM 53.1 °F 28.9 °F 40% 30.13 in 10.0 mi NNE 4.6 mph - N/A   Overcast
2:56 PM 53.1 °F 28.9 °F 40% 30.11 in 10.0 mi NE 10.4 mph - N/A   Mostly Cloudy
3:56 PM 53.1 °F 27.0 °F 37% 30.10 in 10.0 mi NNE 11.5 mph - N/A   Mostly Cloudy
4:56 PM 53.1 °F 28.0 °F 38% 30.11 in 10.0 mi NE 9.2 mph - N/A   Mostly Cloudy
5:56 PM 52.0 °F 28.0 °F 40% 30.12 in 10.0 mi NNE 8.1 mph - N/A   Mostly Cloudy
6:56 PM 53.1 °F 28.0 °F 38% 30.14 in 10.0 mi NNE 9.2 mph - N/A   Mostly Cloudy
7:56 PM 52.0 °F 30.0 °F 43% 30.17 in 10.0 mi NNE 9.2 mph - N/A   Mostly Cloudy
8:56 PM 52.0 °F 28.9 °F 41% 30.19 in 10.0 mi NNE 11.5 mph - N/A   Scattered Clouds
9:56 PM 53.1 °F 28.0 °F 38% 30.22 in 10.0 mi NNE 10.4 mph - N/A   Mostly Cloudy
10:56 PM 53.1 °F 28.9 °F 40% 30.22 in 10.0 mi NNE 11.5 mph - N/A   Mostly Cloudy
11:56 PM 53.1 °F 25.0 °F 34% 30.22 in 10.0 mi NE 11.5 mph - N/A   Overcast